Regional Weather Roundup
Issued by NWS Upton, NY

Current Version | Previous Version | Text Only | Print | Product List | Glossary Off
Versions: 1 2 3 4 5 6 7 8 9 10 11 12 13 14 15 16 17 18 19 20 21 22 23 24 25 26 27

000
ASUS41 KOKX 220308
RWROKX

REGIONAL WEATHER ROUNDUP
NATIONAL WEATHER SERVICE NEW YORK NY
1100 PM EDT MON AUG 21 2017

NOTE: "FAIR" INDICATES FEW OR NO CLOUDS BELOW 12,000 FEET WITH NO
SIGNIFICANT WEATHER AND/OR OBSTRUCTIONS TO VISIBILITY.

NYZ071-072-176-178-NJZ106-104-220400-
NEW YORK CITY METRO AREA

CITY           SKY/WX    TMP DP  RH WIND       PRES   REMARKS
Central Park   CLEAR     78  70  76 MISG      30.13F
Bronx Bot Gard   N/A     79  68  69 SW3       30.12F
LaGuardia APRT MOCLDY    80  71  74 SW12      30.09F
Kennedy INTL   PTCLDY    76  72  87 S8        30.11F
Breezy Point     N/A     73 N/A N/A SW9         N/A
Newark/Liberty PTCLDY    77  70  79 S12       30.10F
Teterboro      CLEAR     79  71  76 S7        30.09F
$$

NYZ177-179-078>081-220400-
LONG ISLAND NEW YORK

CITY           SKY/WX    TMP DP  RH WIND       PRES   REMARKS
Jones Beach      N/A     73 N/A N/A SW3         N/A
Matinecock PT    N/A     77 N/A N/A SW10        N/A
Farmingdale    CLEAR     76  70  82 SW10      30.11F
MacArthur/ISP  PTCLDY    75  72  90 SW8       30.10F
Shirley        CLEAR     76  73  91 SW8       30.11F
Mt Sinai Harb    N/A    N/A N/A N/A SW7         N/A
Westhampton    CLEAR     73  70  90 SW8       30.13F
East Hampton   FAIR      73  70  91 SW6       30.11F
Montauk          N/A     74  71  91 SW9G16    30.12F
$$

NYZ052-065-067-220400-
HUDSON VALLEY

CITY           SKY/WX    TMP DP  RH WIND       PRES   REMARKS
White Plains   CLEAR     72  69  90 CALM      30.11F
Larchmont Harb   N/A     75 N/A N/A S12         N/A
Croton On Huds   N/A     79 N/A N/A CALM        N/A
Newburgh       PTCLDY    75  72  88 SW6       30.11F
Montgomery     CLEAR     73  70  90 SW7       30.09S
Poughkeepsie   CLEAR     73  67  81 CALM      30.07S
Albany         MOCLDY    76  67  73 S7        30.05S
$$

NJZ001-105-106-008-010-013-015-019>022-104-220400-
NEW JERSEY

CITY           SKY/WX    TMP DP  RH WIND       PRES   REMARKS
Newark/Liberty PTCLDY    77  70  79 S12       30.10F
Teterboro      CLEAR     79  71  76 S7        30.09F
Caldwell       PTCLDY    76  72  87 SW5       30.10F
Somerville     CLEAR     71  70  96 CALM      30.09F
Linden         FAIR      77  69  77 CALM      30.11S
Perth Amboy      N/A     75 N/A N/A SW7         N/A
Sussex         CLEAR     72  70  93 CALM      30.11S
Andover          N/A     72  70  93 CALM      30.12F
Trenton        CLEAR     76  71  85 S5        30.11F
Millville      CLOUDY    77  75  93 CALM      30.13S
Atlantic City  PTCLDY    77  72  84 S7        30.13F
Wrightstown    CLOUDY    73  69  89 S5        30.09F
Toms River     PTCLDY    72  70  93 S3        30.13F
Belmar         CLOUDY    74  69  85 S5        30.13F
$$

PAZ047>061-062-071-220400-
EASTERN PENNSYLVANIA

CITY           SKY/WX    TMP DP  RH WIND       PRES   REMARKS
Philadelphia   CLOUDY    78  73  84 S8        30.12F
Allentown      PTCLDY    74  70  87 CALM      30.12S
Scranton       CLEAR     69  68  96 CALM      30.13S FOG
$$

CTZ002-004>006-009-010-012-RIZ004-006-007-MAZ004-011-015-220400-
SOUTHERN NEW ENGLAND
 IN CT

CITY           SKY/WX    TMP DP  RH WIND       PRES   REMARKS
Bradley INTL   CLEAR     74  65  73 S8        30.09S
Hartford       CLEAR     75  66  73 S6        30.09S
Danbury        CLEAR     72  68  87 CALM      30.12S
Wtrbury/Oxford CLEAR     71  67  87 VRB3      30.13S
Norwalk Harbor   N/A     75 N/A N/A S8          N/A
Bridgeport     CLEAR     76  71  85 SW7       30.09F
Meriden        CLEAR     71  66  84 S3        30.10S
New Haven      CLEAR     75  70  84 CALM      30.10F
Chester        FAIR      72  68  88 VRB7      30.11F
Groton         CLEAR     73  67  81 W6        30.10F
Wilimantic     CLEAR     72  65  78 CALM      30.10F

 IN RI

CITY           SKY/WX    TMP DP  RH WIND       PRES   REMARKS
Providence     PTCLDY    74  64  71 W8        30.09F
Block Island   CLEAR     71  68  90 SW14      30.11F
Westerly       CLEAR     73  69  87 SW3       30.11F
 IN MA

CITY           SKY/WX    TMP DP  RH WIND       PRES   REMARKS
Boston         CLEAR     76  63  64 SW15      30.06F
Worcester      CLEAR     68  62  81 SW10      30.11F
Westfield      CLEAR     72  66  81 S7        30.08F
Provincetown   CLEAR     70  66  87 SW10      30.09S
Nantucket      CLEAR     68  67  96 W9        30.12S
$$

ANZ330-335-338-340-345-350-353-355-220400-
COASTAL MARINE OBSERVATIONS


STATION/POSITION TIME  SKY/WX   TEMP    WIND        PRES    VSBY  WAVE
                                AIR SEA DIR/SP/G                  HT/PER
                 (UTC)          (F)     (DEG/KT/KT) (MB)    (MI)  (FT/S)
NY HARB ENTRANCE 0150            76 76  210/ 14/ 16 1019.3          3/ 4
GREAT SOUTH BAY  0230            76 79  230/ 16/ 19   N/A
23 SSW MONTAUK P 0150            74 73              1020.3          2/ 3
15 E BARNEGAT LI 0230               77                N/A           3/ 4
HUDSON CANYON    0150            75 75  220/ 10/ 12 1020.3          2/10
KINGS POINT      0230            78 75  220/ 10/ 11 1019.1
EXECUTION ROCKS  NOT AVBL
WESTERN LI SOUND NOT AVBL
CENTRAL LI SOUND NOT AVBL
EASTERN LI SOUND NOT AVBL
ROBBINS REEF     0224                   210/ 11/ 13 1020.0
$$


>>>>>>>>>>>>>>>>>>>>>>>>>>>> KEY <<<<<<<<<<<<<<<<<<<<<<<<<<<
>                                                          <
>     SKY/WX - Sky Condition/Present Weather               <
>     TMP    - Temperature in Fahrenheit                   <
>     DP     - Dew Point in Fahrenheit                     <
>     RH     - Relative Humidity in Percent                <
>     WIND   - Direction (from) and Speed in MPH           <
>     PRES   - Mean Sea Level Pressure (inches of Hg)      <
>     WCI    - Wind Chill Index                            <
>     VSB    - VISIBILITY IN MILES                         <
>     HX     - HEAT INDEX                                  <
>     TC     - TEMPERATURE IN CELSIUS                      <
>     VRB    - VARIABLE WIND DIRECTION                     <
>                                                          <
>>>>>>>>>>>>>>>>>>>>>>>>>>>> KEY <<<<<<<<<<<<<<<<<<<<<<<<<<<




USA.gov is the U.S. government's official web portal to all federal, state and local government web resources and services.